Location: Hermaringen
(48.5952°N, 10.2585°E)
Time: 09:22:33
(UTC+00:00)

Vanguard 3 - Pass Details

Date: 21 February 2026
Orbit: 507 x 3205 km, 33.4° (Epoch: 6 March)

Event Time Altitude Azimuth Distance (km) Brightness Sun altitude
Rises 18:17:36 0° 258° (WSW) 4,462 12.6 -15.2°
Reaches altitude 10° 18:22:43 10° 236° (SW) 2,892 10.8 -16.0°
Maximum altitude 18:25:54 14° 207° (SSW) 2,270 9.7 -16.6°
Drops below altitude 10° 18:28:32 10° 177° (S) 2,265 9.4 -17.0°
Enters shadow 18:30:25 - 159° (SSE) 2,577 9.5 -17.3°
